When you browse on this site, cookies collect data to enhance your experience and personalize the content and advertising you see.
Visit our Privacy Policy to learn more. By continuing to use the site, you agree to this use of cookies and data.
  • In Hungary
  • List of Countries
  • For 7 days
  • Water Temperature
  • Weather Map
  • News
  • Weather Widgets
  • user-avatar
    Login

    Hourly Weather Marynki

    Today, 17 September, Tuesday

    Time Temperature Precipitation Wind Pressure Humidity
    00:00 +10°C° 0 mm 4 mps 750 mmHg 77%
    01:00 +8°C° 0 mm 4 mps 750 mmHg 79%
    02:00 +8°C° 0 mm 4 mps 750 mmHg 80%
    03:00 +8°C° 0 mm 4 mps 750 mmHg 82%
    04:00 +8°C° 0 mm 4 mps 749 mmHg 83%
    05:00 +9°C° 0 mm 5 mps 749 mmHg 81%
    06:00 +9°C° 0 mm 5 mps 749 mmHg 79%
    07:00 +9°C° 0 mm 5 mps 749 mmHg 77%
    08:00 +11°C° 0 mm 6 mps 748 mmHg 70%
    09:00 +12°C° 0 mm 7 mps 748 mmHg 62%
    10:00 +14°C° 0 mm 7 mps 748 mmHg 55%
    11:00 +13°C° 0.1 mm 8 mps 747 mmHg 57%
    12:00 +13°C° 0.1 mm 9 mps 747 mmHg 59%
    13:00 +12°C° 0.1 mm 9 mps 746 mmHg 61%
    14:00 +12°C° 0.5 mm 9 mps 746 mmHg 65%
    15:00 +11°C° 0.5 mm 9 mps 745 mmHg 69%
    16:00 +11°C° 0.5 mm 9 mps 745 mmHg 73%
    17:00 +10°C° 1 mm 8 mps 745 mmHg 73%
    18:00 +9°C° 1 mm 8 mps 745 mmHg 74%
    19:00 +8°C° 1 mm 7 mps 745 mmHg 75%
    20:00 +8°C° 0 mm 7 mps 745 mmHg 75%
    21:00 +6°C° 0 mm 8 mps 745 mmHg 75%
    22:00 +6°C° 0 mm 8 mps 745 mmHg 75%
    23:00 +6°C° 0 mm 8 mps 745 mmHg 75%

    Tomorrow, 18 September, Wednesday

    Time Temperature Precipitation Wind Pressure Humidity
    00:00 +5°C° 0 mm 9 mps 745 mmHg 74%
    01:00 +5°C° 0 mm 9 mps 745 mmHg 74%
    02:00 +5°C° 0 mm 9 mps 746 mmHg 76%
    03:00 +6°C° 0 mm 9 mps 746 mmHg 77%
    04:00 +6°C° 0 mm 9 mps 747 mmHg 79%
    05:00 +6°C° 0.1 mm 9 mps 748 mmHg 78%
    06:00 +7°C° 0.1 mm 9 mps 748 mmHg 77%
    07:00 +7°C° 0.1 mm 8 mps 749 mmHg 77%
    08:00 +8°C° 0 mm 9 mps 750 mmHg 71%
    09:00 +10°C° 0 mm 9 mps 750 mmHg 65%
    10:00 +11°C° 0 mm 9 mps 751 mmHg 58%
    11:00 +12°C° 0.1 mm 9 mps 751 mmHg 55%
    12:00 +13°C° 0.1 mm 9 mps 751 mmHg 52%
    13:00 +13°C° 0.1 mm 8 mps 752 mmHg 49%
    14:00 +13°C° 0.3 mm 8 mps 752 mmHg 52%
    15:00 +14°C° 0.3 mm 7 mps 752 mmHg 56%
    16:00 +12°C° 0.3 mm 7 mps 752 mmHg 59%
    17:00 +11°C° 0.3 mm 6 mps 752 mmHg 65%
    18:00 +10°C° 0.3 mm 6 mps 753 mmHg 70%
    19:00 +9°C° 0.3 mm 5 mps 753 mmHg 76%
    20:00 +8°C° 0 mm 5 mps 753 mmHg 77%
    21:00 +8°C° 0 mm 5 mps 754 mmHg 78%
    22:00 +7°C° 0 mm 5 mps 754 mmHg 79%
    23:00 +7°C° 0 mm 4 mps 754 mmHg 79%

    Day after tomorrow, 19 September, Thursday

    Time Temperature Precipitation Wind Pressure Humidity
    00:00 +7°C° 0 mm 4 mps 754 mmHg 78%
    01:00 +7°C° 0 mm 4 mps 754 mmHg 78%
    02:00 +7°C° 0 mm 4 mps 754 mmHg 80%
    03:00 +6°C° 0 mm 4 mps 754 mmHg 81%
    04:00 +6°C° 0 mm 4 mps 754 mmHg 83%
    05:00 +6°C° 0 mm 4 mps 754 mmHg 84%
    06:00 +6°C° 0 mm 4 mps 754 mmHg 85%
    07:00 +7°C° 0 mm 5 mps 754 mmHg 86%
    08:00 +8°C° 0.2 mm 5 mps 755 mmHg 81%
    09:00 +10°C° 0.2 mm 5 mps 755 mmHg 75%
    10:00 +12°C° 0.2 mm 5 mps 756 mmHg 69%
    11:00 +13°C° 0.5 mm 5 mps 756 mmHg 63%
    12:00 +14°C° 0.5 mm 6 mps 756 mmHg 57%
    13:00 +14°C° 0.5 mm 6 mps 756 mmHg 51%
    14:00 +14°C° 0.1 mm 6 mps 756 mmHg 51%
    15:00 +14°C° 0.1 mm 6 mps 756 mmHg 51%
    16:00 +14°C° 0.1 mm 6 mps 756 mmHg 51%
    17:00 +12°C° 0 mm 5 mps 756 mmHg 56%
    18:00 +11°C° 0 mm 4 mps 757 mmHg 62%
    19:00 +9°C° 0 mm 3 mps 757 mmHg 67%
    20:00 +9°C° 0 mm 3 mps 758 mmHg 70%
    21:00 +8°C° 0 mm 3 mps 758 mmHg 72%
    22:00 +7°C° 0 mm 3 mps 758 mmHg 75%
    23:00 +7°C° 0 mm 3 mps 758 mmHg 77%

    20 September, Friday

    Time Temperature Precipitation Wind Pressure Humidity
    00:00 +7°C° 0 mm 3 mps 758 mmHg 78%
    01:00 +5°C° 0 mm 3 mps 758 mmHg 80%
    02:00 +5°C° 0 mm 3 mps 758 mmHg 82%
    03:00 +5°C° 0 mm 3 mps 758 mmHg 84%
    04:00 +5°C° 0 mm 3 mps 758 mmHg 86%
    05:00 +5°C° 0 mm 4 mps 758 mmHg 84%
    06:00 +6°C° 0 mm 4 mps 758 mmHg 82%
    07:00 +6°C° 0 mm 4 mps 758 mmHg 80%
    08:00 +8°C° 0 mm 4 mps 759 mmHg 70%
    09:00 +11°C° 0 mm 4 mps 759 mmHg 60%
    10:00 +13°C° 0 mm 4 mps 759 mmHg 50%
    11:00 +13°C° 0 mm 4 mps 759 mmHg 48%
    12:00 +14°C° 0 mm 4 mps 759 mmHg 46%
    13:00 +14°C° 0 mm 4 mps 759 mmHg 44%
    14:00 +14°C° 0 mm 4 mps 759 mmHg 45%
    15:00 +14°C° 0 mm 4 mps 759 mmHg 47%
    16:00 +14°C° 0 mm 4 mps 759 mmHg 48%
    17:00 +12°C° 0 mm 3 mps 759 mmHg 52%
    18:00 +12°C° 0 mm 2 mps 759 mmHg 56%
    19:00 +10°C° 0 mm 2 mps 760 mmHg 60%
    20:00 +11°C° 0 mm 1 mps 760 mmHg 61%
    21:00 +10°C° 0 mm 1 mps 760 mmHg 63%
    22:00 +10°C° 0 mm 1 mps 760 mmHg 65%
    23:00 +10°C° 0 mm 1 mps 760 mmHg 67%

    21 September, Saturday

    Time Temperature Precipitation Wind Pressure Humidity
    00:00 +9°C° 0 mm 1 mps 760 mmHg 68%
    01:00 +9°C° 0 mm 1 mps 760 mmHg 70%
    02:00 +9°C° 0 mm 1 mps 760 mmHg 73%
    03:00 +9°C° 0 mm 1 mps 760 mmHg 76%
    04:00 +9°C° 0 mm 1 mps 760 mmHg 79%
    05:00 +8°C° 0 mm 2 mps 760 mmHg 80%
    06:00 +8°C° 0 mm 2 mps 760 mmHg 82%
    07:00 +9°C° 0 mm 2 mps 760 mmHg 83%
    08:00 +12°C° 0 mm 2 mps 761 mmHg 77%
    09:00 +13°C° 0 mm 2 mps 761 mmHg 71%
    10:00 +15°C° 0 mm 2 mps 761 mmHg 64%
    11:00 +16°C° 0 mm 2 mps 761 mmHg 61%
    12:00 +17°C° 0 mm 2 mps 760 mmHg 57%
    13:00 +18°C° 0 mm 2 mps 760 mmHg 54%
    14:00 +18°C° 0 mm 2 mps 760 mmHg 54%
    15:00 +18°C° 0 mm 2 mps 760 mmHg 54%
    16:00 +18°C° 0 mm 2 mps 759 mmHg 54%
    17:00 +16°C° 0 mm 1 mps 759 mmHg 58%
    18:00 +15°C° 0 mm 1 mps 759 mmHg 63%
    19:00 +12°C° 0 mm 0 mps 759 mmHg 67%
    20:00 +13°C° 0 mm 1 mps 759 mmHg 68%
    21:00 +13°C° 0 mm 1 mps 759 mmHg 68%
    22:00 +12°C° 0 mm 2 mps 759 mmHg 69%
    23:00 +12°C° 0 mm 2 mps 759 mmHg 69%

    22 September, Sunday

    Time Temperature Precipitation Wind Pressure Humidity
    00:00 +12°C° 0 mm 2 mps 759 mmHg 70%
    01:00 +10°C° 0 mm 2 mps 759 mmHg 70%
    02:00 +10°C° 0 mm 2 mps 759 mmHg 70%
    03:00 +10°C° 0 mm 2 mps 759 mmHg 71%
    04:00 +9°C° 0 mm 2 mps 759 mmHg 71%
    05:00 +10°C° 0 mm 2 mps 759 mmHg 70%
    06:00 +10°C° 0 mm 2 mps 759 mmHg 68%
    07:00 +11°C° 0 mm 3 mps 759 mmHg 66%
    08:00 +13°C° 0 mm 3 mps 759 mmHg 60%
    09:00 +15°C° 0 mm 4 mps 759 mmHg 53%
    10:00 +18°C° 0 mm 4 mps 759 mmHg 46%
    11:00 +19°C° 0 mm 4 mps 759 mmHg 44%
    12:00 +20°C° 0 mm 4 mps 758 mmHg 41%
    13:00 +21°C° 0 mm 5 mps 758 mmHg 39%
    14:00 +21°C° 0 mm 4 mps 758 mmHg 41%
    15:00 +21°C° 0 mm 4 mps 757 mmHg 43%
    16:00 +21°C° 0 mm 4 mps 757 mmHg 45%
    17:00 +19°C° 0 mm 4 mps 757 mmHg 50%
    18:00 +17°C° 0 mm 4 mps 757 mmHg 55%
    19:00 +15°C° 0 mm 4 mps 757 mmHg 60%
    20:00 +14°C° 0 mm 4 mps 757 mmHg 61%
    21:00 +14°C° 0 mm 4 mps 757 mmHg 63%
    22:00 +13°C° 0 mm 4 mps 757 mmHg 65%
    23:00 +13°C° 0 mm 4 mps 757 mmHg 65%
    Show more